Lewistown, MT

2:55 AM MDT on March 27, 2017 (GMT -0600)
Lewistown Municipal

Weather History for KLWT - April, 2014

Change the Weather History Date:

Friday, April 4, 2014

  Actual Average Record
Temperature  
Mean Temperature 41 °F 38 °F  
Max Temperature 55 °F 50 °F 72 °F (2016)
Min Temperature 26 °F 27 °F 8 °F (1936)
Degree Days  
Heating Degree Days 24 27  
Month to date heating degree days 124 108  
Since 1 July heating degree days 7297 6907  
Cooling Degree Days 0 0  
Month to date cooling degree days 0 0  
Year to date cooling degree days 0 0  
Moisture  
Dew Point 23 °F    
Average Humidity 52    
Maximum Humidity 78    
Minimum Humidity 26    
Precipitation  
Precipitation T in 0.04 in 0.86 in (1955)
Month to date precipitation T 0.16  
Year to date precipitation 2.75 2.16  
Snow  
Snow 0.00 in - - ()
Snow Depth 0.00 in    
Sea Level Pressure  
Sea Level Pressure 29.82 in    
Wind  
Wind Speed 12 mph (SSW)    
Max Wind Speed 26 mph    
Max Gust Speed 41 mph    
Visibility 10 miles    
Events Rain    
T = Trace of Precipitation, MM = Missing Value Source: NWS Daily Summary

Daily Weather History Graph

Daily Weather History Graph

Search for Another Location

Airport or City:

Trip Planner

Search our weather history database for the weather conditions in past years. The results will help you decide how hot, cold, wet, or windy it might be!

Date:

Astronomy

Apr. 04, 2014 Rise Set
Actual Time 6:50 AM MDT 7:51 PM MDT
Civil Twilight 6:19 AM MDT 8:22 PM MDT
Nautical Twilight 5:42 AM MDT 8:59 PM MDT
Astronomical Twilight 5:03 AM MDT 9:39 PM MDT
Moon 9:56 AM MDT (4/4) 12:26 AM MDT (4/4)
Length of Visible Light 14h 02m
Length of Day
13h 00m
Waxing Crescent, 26% of the Moon is Illuminated
Apr 4
Waxing Crescent
Apr 7
First Quarter
Apr 15
Full
Apr 22
Last Quarter
Apr 29
New

Hourly Weather History & Observations

Time (MDT) Temp. Windchill Dew Point Humidity Pressure Visibility Wind Dir Wind Speed Gust Speed Precip Events Conditions
12:54 AM 28.9 °F 21.1 °F 23.0 °F 78% 29.96 in 10.0 mi ESE 8.1 mph - N/A   Clear
1:54 AM 28.9 °F 21.9 °F 23.0 °F 78% 29.94 in 10.0 mi SE 6.9 mph - N/A   Clear
2:54 AM 28.0 °F 20.8 °F 21.9 °F 78% 29.91 in 10.0 mi ESE 6.9 mph - N/A   Clear
3:54 AM 28.0 °F 22.8 °F 21.0 °F 75% 29.89 in 10.0 mi ESE 4.6 mph - N/A   Clear
4:47 AM 37.0 °F 28.1 °F 21.0 °F 52% 29.83 in 10.0 mi SW 15.0 mph - N/A   Clear
4:54 AM 37.9 °F 28.9 °F 21.0 °F 51% 29.86 in 10.0 mi SW 16.1 mph - N/A   Clear
5:54 AM 36.0 °F 26.7 °F 19.9 °F 52% 29.86 in 10.0 mi SW 15.0 mph - N/A   Clear
6:54 AM 35.1 °F 26.4 °F 19.0 °F 52% 29.86 in 10.0 mi SW 12.7 mph - N/A   Clear
7:54 AM 42.1 °F 34.5 °F 19.0 °F 40% 29.85 in 10.0 mi SW 15.0 mph - N/A   Clear
8:54 AM 45.0 °F 37.6 °F 19.0 °F 36% 29.86 in 10.0 mi SW 17.3 mph - N/A   Clear
9:54 AM 48.0 °F - 19.0 °F 32% 29.85 in 10.0 mi SW 25.3 mph 31.1 mph N/A   Partly Cloudy
10:54 AM 48.0 °F - 18.0 °F 30% 29.84 in 10.0 mi SW 23.0 mph 29.9 mph N/A   Clear
11:54 AM 50.0 °F - 18.0 °F 28% 29.83 in 10.0 mi SW 20.7 mph 29.9 mph N/A   Clear
12:54 PM 51.1 °F - 18.0 °F 27% 29.81 in 10.0 mi SW 20.7 mph 28.8 mph N/A   Scattered Clouds
1:54 PM 53.1 °F - 19.9 °F 27% 29.78 in 10.0 mi SW 23.0 mph 29.9 mph N/A   Clear
2:54 PM 54.0 °F - 19.9 °F 26% 29.76 in 10.0 mi SSW 23.0 mph 32.2 mph N/A   Partly Cloudy
3:54 PM 48.0 °F - 24.1 °F 39% 29.78 in 10.0 mi Calm Calm - 0.00 in Rain Light Rain
4:54 PM 48.0 °F - 24.1 °F 39% 29.73 in 10.0 mi Variable 3.5 mph - 0.00 in   Overcast
5:54 PM 46.9 °F - 27.0 °F 46% 29.75 in 10.0 mi North 10.4 mph 19.6 mph N/A   Overcast
6:54 PM 45.0 °F 41.2 °F 28.0 °F 52% 29.77 in 10.0 mi East 6.9 mph - N/A   Overcast
7:54 PM 44.1 °F 40.8 °F 28.0 °F 53% 29.75 in 10.0 mi South 5.8 mph - N/A   Overcast
8:54 PM 39.0 °F - 28.0 °F 65% 29.77 in 10.0 mi Calm Calm - N/A   Overcast
9:54 PM 41.0 °F 34.3 °F 28.9 °F 62% 29.78 in 10.0 mi West 11.5 mph - N/A   Overcast
10:54 PM 39.9 °F 35.8 °F 30.0 °F 68% 29.79 in 10.0 mi SSW 5.8 mph - N/A   Overcast
11:54 PM 37.9 °F 32.1 °F 30.0 °F 73% 29.79 in 10.0 mi South 8.1 mph - N/A   Mostly Cloudy